Simultaneous Nadir Overpasses (SNOs) Predictions

Prediction of SNOs between AQUA and METOP-B Satellite Orbit:

Table of predicted SNOs for the next 14.0 days since TLE Epoch: 9/23/2023
Index Date (AQUA) Time (AQUA) Lat,Lon (AQUA) SZA (AQUA ) Date (METOP-B) Time (METOP-B) Lat,Lon (METOP-B) SZA (METOP-B ) Distance(km) Time Diff (sec)
1 09/24/2023 20:16:49 74.80,-127.91 75.33 09/24/2023 20:16:13 74.80,-128.02 75.34 3.14 36
2 09/24/2023 21:06:14 -74.90, 39.49 104.56 09/24/2023 21:06:53 -74.89, 39.54 104.57 2.26 39
3 09/27/2023 13:19:24 -74.83, 156.40 103.59 09/27/2023 13:18:32 -74.80, 156.38 103.62 3.73 52
4 09/27/2023 14:08:50 74.89, -36.09 76.49 09/27/2023 14:09:10 74.88, -36.05 76.48 1.26 20
5 09/30/2023 06:21:59 74.80, 80.88 77.43 09/30/2023 06:20:49 74.83, 80.88 77.47 3.91 70
6 09/30/2023 07:11:24 -74.89,-111.72 102.46 09/30/2023 07:11:30 -74.87,-111.68 102.48 2.42 6
7 09/30/2023 08:00:54 75.15, 55.24 77.82 09/30/2023 08:02:04 75.15, 56.44 77.81 34.02 70
8 10/02/2023 23:24:26 -74.52, 5.97 101.80 10/02/2023 23:23:16 -74.47, 4.33 101.84 48.90 70
9 10/03/2023 00:13:58 74.89, 172.69 78.59 10/03/2023 00:13:47 74.89, 172.79 78.59 3.03 11
10 10/03/2023 01:03:22 -74.93, -19.77 101.36 10/03/2023 01:04:28 -74.93, -19.76 101.36 0.53 66
11 10/05/2023 17:16:28 -74.84, 97.21 100.42 10/05/2023 17:16:07 -74.86, 97.12 100.40 3.30 21
12 10/05/2023 18:05:54 74.91, -95.31 79.66 10/05/2023 18:06:45 74.94, -95.33 79.70 3.55 51



Historial Predications of SNOs between AQUA and METOP-B
